Hourly Data Report for August 20, 2020

TORONTO CITY
ONTARIO
Current Station Operator: ECCC - MSC

43°40'00.000" N
79°24'00.000" W
112.50 m
6158355
71508
XTO

Download Data

Hourly Data (August 2020)
Hourly Data Report for August 20, 2020
TIME
LST
Temp Definition
°C
Dew Point Definition
°C
Rel Hum Definition
%
Precip. Amount Definition
mm

Wind Dir Definition
10's deg

Wind Spd Definition
km/h
Visibility Definition
km
Stn Press Definition
kPa
Hmdx Definition


Wind Chill Definition


Weather Definition


00:00 16.0 6.7 54 0.0       100.47     LegendNANA
01:00 15.3 7.8 61 0.0       100.46     LegendNANA
02:00 15.3 8.4 63 0.0       100.44     LegendNANA
03:00 14.3 8.7 69 0.0       100.44     LegendNANA
04:00 14.4 8.9 70 0.0       100.44     LegendNANA
05:00 14.1 9.1 72 0.0       100.43     LegendNANA
06:00 14.0 9.0 72 0.0       100.43     LegendNANA
07:00 16.6 9.4 62 0.0       100.46     LegendNANA
08:00 19.1 9.9 55 0.0       100.45     LegendNANA
09:00 20.7 9.6 49 0.0       100.45     LegendNANA
10:00 21.6 10.3 49 0.0       100.42     LegendNANA
11:00 22.6 11.0 48 0.0       100.40     LegendNANA
12:00 23.5 10.3 43 0.0       100.31 25   LegendNANA
13:00 24.7 11.2 43 0.0       100.23 27   LegendNANA
14:00 24.9 10.9 41 0.0       100.08 27   LegendNANA
15:00 25.4 10.8 40 0.0       100.05 27   LegendNANA
16:00 24.8 13.7 50 0.2       99.99 28   LegendNANA
17:00 24.3 13.8 52 0.0       99.94 28   LegendNANA
18:00 23.7 14.0 54 0.0       99.91 27   LegendNANA
19:00 23.3 13.7 55 0.0       99.92 26   LegendNANA
20:00 23.3 11.7 48 0.0       99.96 25   LegendNANA
21:00 22.0 11.6 52 0.0       99.96     LegendNANA
22:00 21.5 12.4 56 0.0       99.95     LegendNANA
23:00 20.6 12.0 58 0.0       99.93     LegendNANA

Notes on Data Quality.

Legend

  • E = Estimated
  • M = Missing
  • NA = Not Available*
  • [empty] = Indicates an unobserved value
Date modified: